Location: Beang
(6.6177°N, 10.9863°W)
Time: 01:11:29
(UTC+00:00)

BREEZE-M DEB (TANK) - Pass Details

Date: 07 June 2020
Orbit: 371 x 18677 km, 52.6° (Epoch: 13 July)

Event Time Altitude Azimuth Distance (km) Brightness Sun altitude
Exits shadow 05:17:55 26° 274° (W) 1,275 4.2 -16.7°
Maximum altitude 05:19:32 36° 320° (NW) 1,268 4.5 -16.3°
Drops below altitude 10° 05:28:01 10° 24° (NNE) 4,704 8.3 -14.4°
Sets 05:35:41 0° 31° (NNE) 7,858 9.7 -12.7°
